Zurück zum Katalog

BLOCK DM-SL R/B

AktivGEO
NORAD 55507·ROCKET BODY·🇷🇺 Russia

Gestartet Feb 5, 2023 von Baikonur Cosmodrome

Loading…

TLE

AktuellSource: Space-Track

Epoche: Sep 14, 2026, 04:04 UTC

1 55507U 23016B   26257.16974590 -.00000072  00000-0  00000+0 0  9996
2 55507   2.8598  78.7743 0090756 249.6416 109.8498  1.03219447 13599

Verfolge BLOCK DM-SL R/B in Echtzeit mit AllMySat

Download on the App Store